TITAN 3C TRANSTAGE DEB, 3454

Orbit data source: Space-Track

TITAN 3C TRANSTAGE DEB, 3454 is space debris in LEO originally from a launch on Fri, 15 Oct 1965 UTC launched from the Air Force Eastern Test Range (AFETR). Debris objects in space refer to the collection of defunct objects orbiting the Earth. Examples of debris include non-operational satellites, rocket bodies, and fragments generated from explosions, collisions, or faulty payload assembly.

Loading next visibility...
Identifier
3454, 1965-082PP
Orbit
LEO
Country
Flag of USUS
Related business
Manufacturer
Unknown
Mission
Spacecraft
Bus & Motor
Unknown
Mass
Unknown
Launch date (UTC)
1965-10-15 (61 years ago)
Launch vehicle
Unknown
Launch site
Air Force Eastern Test Range (AFETR)
Object type
Payload
Rocket body
Debris
Shape & HBR
Unknown shape, 0.1 m
Radar Cross Section
Small (<0.1 m²)

Expand to show TLE details & history
Last TLE update: 20 hours ago

TLE from 20 hours ago
0 TITAN 3C TRANSTAGE DEB
1 03454U 65082PP  26177.75213980  .00007611  00000-0  42521-3 0  9997
2 03454  32.2612 332.6106 0013841  25.6353 334.4993 15.12280427247332
Epoch: 2026-06-26T18:03Z
TLE epoch observation values (Epoch: 2026-06-26T18:03:04.878Z)
Latitude
-0.00003°
Longitude
146.96409°
Altitude
519.255 km
Speed
7.611 km/s
True Right ascension
22h 10m 26s
True Declination
0° 00' 00"
Sunlit
Object was in full shadow at epoch
Visualization orbit readout
Latitude
Unknown
Longitude
Unknown
Altitude
Unknown
Speed
Unknown
Apparent Right ascension
Unknown
Apparent Declination
Unknown
Sunlit
N/A
Visualization observer readout
Local Sidereal Time
01:09:39
Azimuth
Unknown
Elevation
Unknown
Doppler factor
Unknown
Orbital elements
Apogee altitude
542.47 km
Perigee altitude
523.338 km
Semi-major axis
6,911.041 km
Eccentricity
0.00138
Inclination
32.2612°
RAAN
332.6106°
Arg. of periapsis
25.6353°
True anomaly
334.43091°
Mean anomaly
334.4993°
Eccentric anomaly
334.46512°
Mean motion
3.7777 °/min
Orbital period
95.3 mins
BSTAR
0.00042521

Documentation

Showing up to 5 results
|